Location: Albuquerque Trailhead
(34.7934°N, 106.3736°W)
Time: 22:18:37
(UTC+00:00)

USA 281 - Pass Details

Date: 20 June 2021
Orbit: 1078 x 1081 km, 106.0° (Epoch: 18 July)

Event Time Altitude Azimuth Distance (km) Brightness Sun altitude
Rises 10:58:19 0° 178° (S) 3,862 5.8 -10.1°
Reaches altitude 10° 11:00:59 10° 185° (S) 2,910 5.1 -9.6°
Maximum altitude 11:07:03 40° 253° (WSW) 1,538 3.6 -8.6°
Drops below altitude 10° 11:13:10 10° 322° (NW) 2,925 5.5 -7.6°
Sets 11:15:53 0° 330° (NNW) 3,885 6.2 -7.2°
